Погода в Апанасенковском

Россия / Ставропольский край     45°45′07″N   43°33′28″E
темп.,
°C
ветер,
м/с
пор.,
м/с
влажн.,
%
обл.,
%
осадки,
мм/ч
давл.,
гПа
погр.,
м
10 августа, ср
ср1000:00+25юв47330 0.0 1014107
03:00+23юв33390 0.0 101325
06:00+23в35390 0.0 1013112
09:00+31в710240 0.0 10131587
12:00+35вюв810190 0.0 10112983
15:00+35вюв911180 0.0 10093115
18:00+33вюв911210 0.0 10092753
21:00+28вюв71432100 0.0 1010593
11 августа, чт
чт1100:00+26в61443100 0.0 1009557
03:00+24в5154496 0.0 1009485
06:00+24в514445 0.0 1009496
09:00+32вюв1015255 0.0 10091844
12:00+37вюв11131698 0.0 10072909
15:00+38вюв10111854 0.0 10063265
18:00+35вюв992336 0.0 10082308
21:00+30в815297 0.0 1010723
12 августа, пт
пт1200:00+27в81537100 0.0 1010642
03:00+27вюв7153599 0.1 1011696
06:00+25вюв31250100 0.5 1012529
09:00+32вюв914270 0.5 10121742
12:00+35юв8141998 0.3 10122964
15:00+37вюв111116100 0.3 10103320
18:00+34вюв10111986 0.0 10122042
21:00+30вюв81527100 0.0 1014738
13 августа, сб
сб1300:00+27вюв6143099 0.0 1014539
03:00+25в4837100 0.0 1013199
06:00+26всв51235100 0.1 1014426
09:00+31в8102891 0.1 1013988
12:00+36вюв9121766 0.0 10122679
15:00+38в10121346 0.0 10103250
18:00+35вюв1011186 0.0 10112379
21:00+29вюв916275 0.0 1012675
14 августа, вс
вс1400:00+26вюв514324 0.0 1011360
03:00+24в515380 0.0 1011330
06:00+24в616380 0.0 1011476
09:00+33вюв1015230 0.0 10101532
12:00+38вюв1214150 0.0 10082912
15:00+39вюв1213130 0.0 10073103
18:00+36вюв1012170 0.0 10082638
21:00+30вюв815280 0.0 1009667